EW4931 Weather Reports


time (UTC)temp
F
wind
direction
speed
knots
gust
knots
rain 1hr
in
rain 24hr
in
rain mn
in
humidity
%
barometer
mb
20260506201105 38 162 0.9 1.7 0.00 0.00 0.00 70 1013.8
20260506200605 38 162 0.9 1.7 0.00 0.00 0.00 69 1013.8
20260506200105 38 162 0.9 0.9 0.00 0.00 0.00 68 1013.7
20260506195605 39 162 0.9 0.9 0.00 0.00 0.00 67 1013.8
20260506195307 39 162 0.9 1.7 0.00 0.00 0.00 67 1013.8
20260506194105 40 162 1.7 1.7 0.00 0.00 0.00 66 1013.8
20260506193604 40 162 0.9 2.6 0.00 0.00 0.00 65 1013.9
20260506193105 40 162 0.9 2.6 0.00 0.00 0.00 65 1013.8
20260506192605 41 162 0.9 1.7 0.00 0.00 0.00 64 1013.9
20260506192104 41 162 0.0 1.7 0.00 0.00 0.00 63 1013.9
20260506191605 42 162 0.9 1.7 0.00 0.00 0.00 62 1013.9
20260506191105 42 162 0.9 1.7 0.00 0.00 0.00 61 1013.8
20260506190605 42 162 0.9 3.5 0.00 0.00 0.00 60 1013.9
20260506190517 42 162 2.6 3.5 0.00 0.00 0.00 60 1013.9
20260506185531 43 162 0.9 2.6 0.00 0.00 0.00 59 1013.9
20260506185030 43 162 1.7 2.6 0.00 0.00 0.00 59 1013.8
20260506184755 43 161 1.7 2.6 0.00 0.00 0.00 58 1013.9
20260506184030 44 161 1.7 2.6 0.00 0.00 0.00 57 1013.8
20260506183530 44 161 0.9 3.5 0.00 0.00 0.00 56 1013.8
20260506183030 44 154 1.7 5.2 0.00 0.00 0.00 55 1013.7
20260506182530 44 120 2.6 5.2 0.00 0.00 0.00 54 1013.8
20260506182250 45 148 1.7 3.5 0.00 0.00 0.00 54 1013.8
20260506181529 45 162 1.7 5.2 0.00 0.00 0.00 53 1013.7
20260506181029 45 166 3.5 5.2 0.00 0.00 0.00 52 1013.7
20260506180531 45 151 1.7 7.8 0.00 0.00 0.00 51 1013.6
20260506180030 45 142 5.2 7.8 0.00 0.00 0.00 50 1013.5
20260506175529 46 197 4.3 6.1 0.00 0.00 0.00 50 1013.6
20260506175029 46 125 4.3 6.1 0.00 0.00 0.00 49 1013.6
20260506174529 46 138 3.5 7.8 0.00 0.00 0.00 48 1013.6
20260506174029 46 125 4.3 7.8 0.00 0.00 0.00 47 1013.6
20260506173528 47 166 2.6 6.1 0.00 0.00 0.00 47 1013.6
20260506173028 47 164 3.5 6.1 0.00 0.00 0.00 47 1013.6
20260506172528 47 171 2.6 8.7 0.00 0.00 0.00 46 1013.5
20260506172028 47 200 6.1 8.7 0.00 0.00 0.00 45 1013.6
20260506172008 48 193 3.5 4.3 0.00 0.00 0.00 45 1013.6
20260506171028 48 135 2.6 4.3 0.00 0.00 0.00 45 1013.7
20260506170528 48 178 2.6 6.1 0.00 0.00 0.00 46 1013.7
20260506170029 48 197 4.3 6.1 0.00 0.00 0.00 46 1013.5
20260506165528 48 147 2.6 10.4 0.00 0.00 0.00 47 1013.5
20260506165028 48 202 4.3 10.4 0.00 0.00 0.00 47 1013.5
20260506164528 48 166 7.0 11.3 0.00 0.00 0.00 46 1013.5
20260506164514 49 162 5.2 11.3 0.00 0.00 0.00 45 1013.5
20260506163527 49 162 3.5 10.4 0.00 0.00 0.00 46 1013.5
20260506163027 49 172 7.8 10.4 0.00 0.00 0.00 45 1013.4
20260506162527 50 169 1.7 7.8 0.00 0.00 0.00 44 1013.4
20260506162247 50 195 4.3 7.8 0.00 0.00 0.00 43 1013.3
20260506161527 51 264 1.7 5.2 0.00 0.00 0.00 45 1013.3
20260506161248 51 151 1.7 6.1 0.00 0.00 0.00 45 1013.3
20260506160526 50 175 3.5 8.7 0.00 0.00 0.00 45 1013.3
20260506160027 49 130 3.5 9.6 0.00 0.00 0.00 48 1013.4
20260506155526 49 164 3.5 12.2 0.00 0.00 0.00 46 1013.3
20260506155026 50 133 5.2 12.2 0.00 0.00 0.00 46 1013.3
20260506154526 50 300 1.7 7.8 0.00 0.00 0.00 49 1013.3
20260506154026 50 158 4.3 10.4 0.00 0.00 0.00 48 1013.3
20260506153526 50 161 4.3 10.4 0.00 0.00 0.00 45 1013.3
20260506153026 50 227 3.5 7.8 0.00 0.00 0.00 43 1013.4
20260506152527 51 196 4.3 9.6 0.00 0.00 0.00 40 1013.4
20260506152249 51 245 3.5 9.6 0.00 0.00 0.00 40 1013.4
20260506151525 52 206 2.6 5.2 0.00 0.00 0.00 42 1013.3
20260506151025 52 178 2.6 5.2 0.00 0.00 0.00 38 1013.4
20260506151013 51 192 1.7 10.4 0.00 0.00 0.00 40 1013.3
20260506150026 51 149 6.1 10.4 0.00 0.00 0.00 40 1013.3
20260506145525 51 161 1.7 9.6 0.00 0.00 0.00 39 1013.3
20260506145244 51 178 7.0 10.4 0.00 0.00 0.00 38 1013.2
20260506144525 51 173 4.3 11.3 0.00 0.00 0.00 37 1013.4
20260506144025 51 124 6.1 11.3 0.00 0.00 0.00 34 1013.4
20260506143524 51 206 3.5 7.8 0.00 0.00 0.00 35 1013.4
20260506143025 52 183 4.3 9.6 0.00 0.00 0.00 37 1013.5
20260506142525 51 176 2.6 13.0 0.00 0.00 0.00 38 1013.4
20260506142253 51 171 7.0 13.0 0.00 0.00 0.00 35 1013.4
20260506141524 51 131 8.7 13.0 0.00 0.00 0.00 35 1013.4
20260506141025 52 127 7.0 12.2 0.00 0.00 0.00 34 1013.4
20260506140524 51 134 2.6 7.8 0.00 0.00 0.00 36 1013.4
20260506140026 51 175 3.5 11.3 0.00 0.00 0.00 35 1013.3
20260506135524 51 183 6.1 11.3 0.00 0.00 0.00 35 1013.3
20260506135024 51 125 7.0 13.0 0.00 0.00 0.00 36 1013.4
20260506134524 52 144 6.1 13.0 0.00 0.00 0.00 35 1013.3
20260506134024 52 166 2.6 9.6 0.00 0.00 0.00 37 1013.3
20260506133745 51 176 3.5 9.6 0.00 0.00 0.00 38 1013.3
20260506133024 51 148 7.0 9.6 0.00 0.00 0.00 38 1013.3
20260506132523 52 134 5.2 13.0 0.00 0.00 0.00 39 1013.3
20260506132245 51 169 6.1 13.9 0.00 0.00 0.00 38 1013.4
20260506131747 51 202 7.8 13.9 0.00 0.00 0.00 39 1013.4
20260506131023 51 166 5.2 11.3 0.00 0.00 0.00 39 1013.4
20260506130523 51 162 7.8 13.0 0.00 0.00 0.00 37 1013.4
20260506130024 52 116 9.6 13.0 0.00 0.00 0.00 38 1013.3
20260506125523 51 141 6.1 15.6 0.00 0.00 0.00 39 1013.3
20260506125023 51 148 6.1 15.6 0.00 0.00 0.00 38 1013.3
20260506124522 51 175 6.1 13.9 0.00 0.00 0.00 38 1013.4
20260506124023 52 130 7.0 13.9 0.00 0.00 0.00 38 1013.3
20260506123742 53 200 4.3 10.4 0.00 0.00 0.00 39 1013.3
20260506123023 53 142 6.1 9.6 0.00 0.00 0.00 39 1013.2
20260506122744 53 148 3.5 11.3 0.00 0.00 0.00 39 1013.3
20260506122023 53 142 7.8 11.3 0.00 0.00 0.00 38 1013.4
20260506121523 53 118 4.3 12.2 0.00 0.00 0.00 38 1013.4
20260506121024 52 99 7.0 12.2 0.00 0.00 0.00 38 1013.4
20260506120522 52 73 4.3 12.2 0.00 0.00 0.00 39 1013.4
20260506120022 52 155 5.2 10.4 0.00 0.00 0.00 39 1013.4
20260506115750 52 148 4.3 10.4 0.00 0.00 0.00 39 1013.4
20260506115021 51 154 3.5 12.2 0.00 0.00 0.00 40 1013.4
20260506114523 51 106 7.8 12.2 0.00 0.00 0.00 38 1013.4
20260506114506 52 116 7.8 12.2 0.00 0.00 0.00 38 1013.4
20260506113522 52 221 5.2 11.3 0.00 0.00 0.00 37 1013.5
20260506113022 52 203 3.5 10.4 0.00 0.00 0.00 38 1013.4
20260506112522 52 133 2.6 6.1 0.00 0.00 0.00 38 1013.4
20260506112021 52 134 4.3 8.7 0.00 0.00 0.00 37 1013.5
20260506111521 52 282 4.3 8.7 0.00 0.00 0.00 37 1013.5
20260506111022 52 162 3.5 8.7 0.00 0.00 0.00 35 1013.5
20260506110521 52 202 3.5 8.7 0.00 0.00 0.00 34 1013.5
20260506110020 53 148 4.3 8.7 0.00 0.00 0.00 35 1013.6
20260506105520 52 161 3.5 11.3 0.00 0.00 0.00 36 1013.5
20260506105020 52 172 3.5 11.3 0.00 0.00 0.00 37 1013.6
20260506104520 52 165 4.3 10.4 0.00 0.00 0.00 37 1013.5
20260506104020 51 186 6.1 11.3 0.00 0.00 0.00 38 1013.6
20260506104006 51 131 7.0 11.3 0.00 0.00 0.00 36 1013.7
20260506103020 53 121 3.5 9.6 0.00 0.00 0.00 28 1013.7
20260506102520 52 145 5.2 9.6 0.00 0.00 0.00 26 1013.8
20260506102020 52 92 4.3 7.8 0.00 0.00 0.00 27 1013.7
20260506101521 53 87 5.2 6.1 0.00 0.00 0.00 26 1013.8
20260506101019 53 0 2.6 4.3 0.00 0.00 0.00 26 1013.8
20260506100519 53 151 1.7 4.3 0.00 0.00 0.00 26 1013.9
20260506100020 53 173 1.7 4.3 0.00 0.00 0.00 27 1013.9
20260506095748 52 188 2.6 7.8 0.00 0.00 0.00 26 1013.9
20260506095019 52 250 5.2 8.7 0.00 0.00 0.00 25 1014.1
20260506094519 52 313 1.7 8.7 0.00 0.00 0.00 26 1014.0
20260506094019 53 269 2.6 4.3 0.00 0.00 0.00 27 1014.1
20260506093519 53 41 1.7 7.8 0.00 0.00 0.00 27 1014.1
20260506093019 53 358 6.1 7.8 0.00 0.00 0.00 26 1014.1
20260506092518 53 283 0.9 7.8 0.00 0.00 0.00 28 1014.1
20260506092018 53 0 4.3 7.8 0.00 0.00 0.00 30 1014.0
20260506091518 53 306 3.5 5.2 0.00 0.00 0.00 26 1014.0
20260506091018 53 44 1.7 6.1 0.00 0.00 0.00 28 1014.0
20260506090518 52 224 2.6 6.1 0.00 0.00 0.00 30 1014.0
20260506090020 52 309 2.6 4.3 0.00 0.00 0.00 32 1013.9
20260506085517 52 276 3.5 4.3 0.00 0.00 0.00 33 1014.0
20260506085018 52 142 3.5 4.3 0.00 0.00 0.00 31 1013.9
20260506084517 51 124 1.7 6.1 0.00 0.00 0.00 31 1013.9
20260506084017 51 331 1.7 6.1 0.00 0.00 0.00 32 1013.9
20260506083517 51 357 2.6 6.1 0.00 0.00 0.00 34 1013.9
20260506083018 51 302 2.6 6.1 0.00 0.00 0.00 32 1013.9
20260506082517 52 331 3.5 4.3 0.00 0.00 0.00 34 1013.9
20260506082018 52 248 1.7 4.3 0.00 0.00 0.00 34 1013.9
20260506081517 51 8 2.6 4.3 0.00 0.00 0.00 33 1013.9
20260506081017 51 345 1.7 4.3 0.00 0.00 0.00 33 1013.8
20260506080516 51 316 1.7 4.3 0.00 0.00 0.00 34 1013.7
20260506073516 49 290 3.5 5.2 0.00 0.00 0.00 37 1013.6
20260506073017 49 340 3.5 5.2 0.00 0.00 0.00 37 1013.6
20260506072516 49 310 3.5 5.2 0.00 0.00 0.00 36 1013.6
20260506072240 49 310 1.7 4.3 0.00 0.00 0.00 38 1013.6
20260506071516 49 316 3.5 4.3 0.00 0.00 0.00 39 1013.6
20260506071016 49 0 0.9 4.3 0.00 0.00 0.00 42 1013.6
20260506070515 49 23 1.7 4.3 0.00 0.00 0.00 44 1013.6
20260506062516 47 309 1.7 3.5 0.00 0.00 0.00 48 1013.7
20260506062016 47 320 2.6 3.5 0.00 0.00 0.00 51 1013.6
20260506061514 46 34 1.7 3.5 0.00 0.00 0.00 53 1013.6
20260506061014 46 52 1.7 3.5 0.00 0.00 0.00 54 1013.6
20260506060515 46 47 1.7 2.6 0.00 0.00 0.00 54 1013.6
20260506051013 42 83 0.0 1.7 0.00 0.00 0.00 76 1013.2
20260506050513 41 83 0.0 1.7 0.00 0.00 0.00 78 1013.2
20260506045013 40 83 0.0 0.0 0.00 0.00 0.00 87 1013.1
20260506044950 39 83 0.0 0.0 0.00 0.00 0.00 89 1013.1
20260506044013 38 83 0.0 0.0 0.00 0.00 0.00 91 1013.1
20260506043513 37 83 0.0 0.0 0.00 0.00 0.00 91 1013.1
20260506043012 36 83 0.0 0.0 0.00 0.00 0.00 91 1013.0
20260506042730 36 83 0.0 0.0 0.00 0.00 0.00 91 1013.0
20260506042012 35 83 0.0 0.0 0.00 0.00 0.00 91 1012.9
20260506041512 35 83 0.0 0.0 0.00 0.00 0.00 91 1012.9
20260506041012 35 83 0.0 0.0 0.00 0.00 0.00 92 1012.8
20260506040512 35 83 0.0 0.0 0.00 0.00 0.00 91 1012.9
20260506040012 34 83 0.0 0.0 0.00 0.00 0.00 91 1012.9
20260506035512 34 83 0.0 0.0 0.00 0.00 0.00 91 1012.8
20260506035011 35 83 0.0 0.0 0.00 0.00 0.00 92 1012.7
20260506034733 35 83 0.0 0.0 0.00 0.00 0.00 92 1012.7
20260506034012 34 83 0.0 0.0 0.00 0.00 0.00 93 1012.5
20260506033512 34 83 0.0 0.0 0.00 0.00 0.00 93 1012.6
20260506033238 33 83 0.0 0.0 0.00 0.00 0.00 93 1012.6
20260506032511 33 83 0.0 0.0 0.00 0.00 0.00 92 1012.5
20260506032011 32 83 0.0 0.0 0.00 0.00 0.00 92 1012.5
20260506031511 32 83 0.0 0.0 0.00 0.00 0.00 92 1012.4
20260506031011 32 83 0.0 0.0 0.00 0.00 0.00 91 1012.3
20260506030511 31 83 0.0 0.0 0.00 0.00 0.00 91 1012.3
20260506030010 32 83 0.0 0.0 0.00 0.00 0.00 91 1012.3
20260506025510 32 83 0.0 0.0 0.00 0.00 0.00 91 1012.2
20260506025011 32 83 0.0 0.0 0.00 0.00 0.00 91 1012.1
20260506024510 32 83 0.0 0.0 0.00 0.00 0.00 91 1012.1
20260506024010 32 83 0.0 0.0 0.00 0.00 0.00 91 1012.2
20260506023510 32 83 0.0 0.0 0.00 0.00 0.00 91 1012.2
20260506023010 32 83 0.0 0.0 0.00 0.00 0.00 91 1012.1
20260506022510 32 83 0.0 0.0 0.00 0.00 0.00 90 1012.2
20260506022010 32 83 0.0 0.0 0.00 0.00 0.00 90 1012.1
20260506022004 32 83 0.0 0.0 0.00 0.00 0.00 90 1012.1
20260506021010 33 83 0.0 0.0 0.00 0.00 0.00 90 1012.0
20260506020509 33 83 0.0 0.0 0.00 0.00 0.00 90 1012.0
20260506020010 33 83 0.0 0.0 0.00 0.00 0.00 90 1011.9
20260506015509 33 83 0.0 0.0 0.00 0.00 0.00 90 1011.9
20260506015009 33 83 0.0 0.0 0.00 0.00 0.00 89 1011.9
20260506014509 33 83 0.0 0.0 0.00 0.00 0.00 89 1011.8
20260506014227 33 83 0.0 0.0 0.00 0.00 0.00 89 1011.8
20260506013509 33 83 0.0 0.0 0.00 0.00 0.00 89 1011.8
20260506013009 34 83 0.0 0.0 0.00 0.00 0.00 89 1011.7
20260506012508 34 83 0.0 0.0 0.00 0.00 0.00 89 1011.7
20260506012008 34 83 0.0 0.0 0.00 0.00 0.00 88 1011.6
20260506011739 34 83 0.0 0.0 0.00 0.00 0.00 89 1011.5
20260506011008 35 83 0.0 0.0 0.00 0.00 0.00 89 1011.5
20260506010947 35 83 0.0 0.0 0.00 0.00 0.00 90 1011.5
20260506010008 35 83 0.0 0.0 0.00 0.00 0.00 90 1011.3
20260506005506 35 83 0.0 0.0 0.00 0.00 0.00 91 1011.2
20260506005005 35 83 0.0 0.0 0.00 0.00 0.00 91 1011.3
20260506004505 35 83 0.0 0.0 0.00 0.00 0.00 91 1011.2
20260506004228 35 83 0.0 0.0 0.00 0.00 0.00 91 1011.2
20260506003506 34 83 0.0 0.0 0.00 0.00 0.00 91 1011.2
20260506003005 34 83 0.0 0.0 0.00 0.00 0.00 91 1011.2
20260506002505 34 83 0.0 0.0 0.00 0.00 0.00 90 1011.1
20260506002005 34 83 0.0 0.0 0.00 0.00 0.00 90 1011.1
20260506001505 34 83 0.0 0.0 0.00 0.00 0.00 90 1011.1
20260506001005 35 83 0.0 0.0 0.00 0.00 0.00 90 1011.0
20260506000504 35 83 0.0 0.0 0.00 0.00 0.00 90 1011.0
20260506000006 35 83 0.0 0.0 0.00 0.00 0.00 90 1011.0
20260505235504 35 83 0.0 0.0 0.00 0.00 0.00 89 1011.0
20260505235004 35 83 0.0 0.0 0.00 0.00 0.00 89 1010.9
20260505234504 36 83 0.0 0.0 0.00 0.00 0.00 89 1010.9
20260505234004 36 83 0.0 0.0 0.00 0.00 0.00 90 1011.0
20260505233503 36 83 0.0 0.0 0.00 0.00 0.00 89 1010.9
20260505233004 36 83 0.0 0.9 0.00 0.00 0.00 89 1010.9
20260505232504 36 83 0.0 0.9 0.00 0.00 0.00 89 1010.9
20260505232003 37 83 0.0 0.0 0.00 0.00 0.00 89 1010.8
20260505231504 37 83 0.0 0.9 0.00 0.00 0.00 89 1010.8
20260505231004 37 83 0.0 0.9 0.00 0.00 0.00 88 1010.7
20260505230725 37 83 0.0 0.0 0.00 0.00 0.00 89 1010.8
20260505230016 37 83 0.0 0.0 0.00 0.00 0.00 88 1010.7
20260505225504 38 83 0.0 0.0 0.00 0.00 0.00 88 1010.7
20260505225005 38 83 0.0 0.0 0.00 0.00 0.00 87 1010.7
20260505224505 38 83 0.0 0.0 0.00 0.00 0.00 88 1010.7
20260505224004 38 83 0.0 0.0 0.00 0.00 0.00 87 1010.7
20260505223504 38 83 0.0 0.0 0.00 0.00 0.00 87 1010.7
20260505223005 38 83 0.0 0.0 0.00 0.00 0.00 87 1010.6
20260505222504 38 83 0.0 0.0 0.00 0.00 0.00 86 1010.6
20260505222004 38 83 0.0 0.9 0.00 0.00 0.00 86 1010.5
20260505221504 38 83 0.0 1.7 0.00 0.00 0.00 87 1010.6
20260505221004 38 83 1.7 1.7 0.00 0.00 0.00 86 1010.5
20260505220504 38 83 0.0 1.7 0.00 0.00 0.00 86 1010.5
20260505220004 38 83 0.9 1.7 0.00 0.00 0.00 86 1010.4
20260505215728 38 83 0.0 1.7 0.00 0.00 0.00 85 1010.4
20260505215004 38 83 1.7 1.7 0.00 0.00 0.00 86 1010.4
20260505214504 39 83 0.9 1.7 0.00 0.00 0.00 86 1010.4
20260505214003 39 83 0.0 0.0 0.00 0.00 0.00 86 1010.4
20260505213504 39 83 0.0 0.0 0.00 0.00 0.00 85 1010.4
20260505213004 39 83 0.0 0.0 0.00 0.00 0.00 85 1010.3
20260505212719 39 83 0.0 0.9 0.00 0.00 0.00 84 1010.3
20260505212002 39 83 0.0 1.7 0.00 0.00 0.00 84 1010.3
20260505211502 40 83 0.9 1.7 0.00 0.00 0.00 84 1010.2
20260505211002 40 83 0.0 1.7 0.00 0.00 0.00 84 1010.2
20260505210503 40 83 0.0 0.9 0.00 0.00 0.00 84 1010.3
20260505210225 40 83 0.0 0.0 0.00 0.00 0.00 83 1010.2
20260505205503 40 83 0.0 0.0 0.00 0.00 0.00 83 1010.2
20260505205004 41 83 0.0 0.0 0.00 0.00 0.00 84 1010.1
20260505204504 40 83 0.0 0.9 0.00 0.00 0.00 83 1010.1
20260505204003 40 83 0.0 0.9 0.00 0.00 0.00 82 1010.0
20260505203504 41 83 0.0 0.0 0.00 0.00 0.00 82 1009.9
20260505203005 41 83 0.0 0.0 0.00 0.00 0.00 81 1009.8
20260505202505 42 83 0.0 0.0 0.00 0.00 0.00 81 1009.8
20260505202001 42 83 0.0 0.0 0.00 0.00 0.00 81 1009.7
20260505201456 42 83 0.0 0.0 0.00 0.00 0.00 80 1009.7